Location: Piolenc
(44.1794°N, 4.7641°E)
Time: 16:19:48
(UTC+00:00)

Daily predictions for brighter satellites

Satellite Brightness Start Highest point End
(mag) Time Altitude Azimuth Time Altitude Azimuth Time Altitude Azimuth
Cosmos 2315 Rocket 4.1 19:27:01 10° S 19:33:20 71° E 19:39:42 10° NNE
Resurs 01 Rocket 2.5 19:31:49 10° SE 19:35:46 33° ENE 19:39:45 10° N
Cosmos 1470 Rocket 3.8 19:33:10 10° N 19:37:35 53° ENE 19:41:57 10° SSE
CREW DRAGON DEMO-1 DEB 4.3 19:36:51 10° W 19:39:02 23° SW 19:41:11 10° SSE
Cosmos 1782 3.2 19:38:42 10° SSW 19:42:40 70° W 19:46:38 10° N
Meteor 1-5 Rocket 4.3 19:39:25 10° N 19:44:39 54° ENE 19:49:49 10° SSE
USA 307 3.5 19:42:01 10° WNW 19:46:10 51° SW 19:50:18 10° SSE
SPOT 3 Rocket 4.1 19:42:26 10° SE 19:47:15 42° ENE 19:52:05 10° N
NOSS 3-4 (A) 4.0 19:41:17 10° NW 19:48:19 78° NE 19:56:10 10° SE
NOSS 3-4 (C) 4.0 19:41:24 10° NW 19:48:26 78° NE 19:56:17 10° SE
SJ 16-02 1.3 19:44:08 10° SSW 19:48:33 75° ESE 19:53:00 10° NNE
IRS-1A Rocket 4.4 19:45:05 10° SSE 19:50:55 89° ENE 19:56:52 10° NNW
Cosmos 1933 Rocket 3.9 19:46:53 10° N 19:51:06 47° ENE 19:55:18 10° SSE
Cosmos 1151 Rocket 3.7 19:47:41 10° SSW 19:52:00 59° W 19:56:21 10° N
Tianhe-1 1.5 19:49:57 10° WSW 19:52:56 44° S 19:55:58 10° E
SJ-6B 3.8 19:51:50 10° S 19:55:39 47° W 19:59:36 10° NNW
deb Kosmos-1763 4.3 19:52:19 10° NNW 19:55:50 66° WSW 19:59:19 10° S
Ariane Rocket 3.1 19:51:38 10° SSE 19:56:42 85° WSW 20:01:48 10° NNW
Cosmos 1943 Rocket 3.2 19:55:22 10° SSE 19:59:49 25° ESE 20:04:15 10° NE
USA 308 3.9 19:56:04 10° WNW 20:00:05 40° SW 20:04:03 10° SSE
ATLAS 2AS CENTAUR R/B 3.1 19:54:15 10° NNW 20:01:35 59° NE 20:07:46 12° SE
Cosmos 2082 Rocket 2.2 19:56:50 10° NNW 20:02:29 76° ENE 20:07:52 11° SSE
Terra 3.9 20:00:58 10° E 20:03:02 13° ENE 20:05:06 10° NNE
Cosmos 158 Rocket 3.9 19:58:15 10° NNW 20:03:09 72° ENE 20:07:55 11° SSE
Cosmos 990 Rocket 4.4 19:58:29 10° S 20:03:22 41° ESE 20:08:18 10° NE
Meteor 1-11 Rocket 4.2 20:03:08 10° N 20:08:54 49° ENE 20:13:54 13° SSE
Resurs 1-3 4.0 20:05:57 10° S 20:10:17 64° W 20:14:40 10° NNW
Cosmos 1340 Rocket 4.4 20:07:11 10° NNE 20:10:19 21° ENE 20:12:35 14° ESE
Cosmos 1900 4.5 20:05:29 10° SSW 20:10:27 55° ESE 20:15:24 10° NE
Cosmos 1898 Rocket 4.0 20:07:50 10° S 20:12:46 41° ESE 20:17:45 10° NE
CZ-2C R/B 4.0 20:13:21 10° NNE 20:17:47 49° E 20:22:15 10° S
USA 245 3.6 20:18:58 20° E 20:19:38 22° ENE 20:21:41 10° NNE
Cosmos 923 Rocket 4.1 20:15:42 10° NNW 20:21:00 73° ENE 20:25:16 16° SSE
ARIANE 5 R/B 3.6 20:18:52 16° ESE 20:21:37 32° ENE 20:25:29 10° N
Cosmos 1271 Rocket 2.8 20:18:00 10° S 20:22:00 90° ENE 20:26:01 10° N
Cosmos 2278 Rocket 3.6 20:20:31 10° SW 20:25:51 42° WNW 20:31:14 10° NNE
Cosmos 1461 3.4 20:21:42 10° S 20:26:11 45° ESE 20:30:37 10° NE
Cosmos 2369 Rocket 3.4 20:26:36 18° SE 20:28:51 22° E 20:33:06 10° NE
Meteor 1-10 Rocket 4.3 20:25:28 10° S 20:31:05 87° W 20:36:51 10° N
Cosmos 1666 3.1 20:28:18 10° NNW 20:31:59 59° W 20:35:18 12° S
Landsat 7 3.8 20:28:09 13° SSE 20:32:20 85° WSW 20:37:08 10° NNW
Cosmos 1818 3.9 20:27:28 10° NNW 20:32:52 55° NE 20:36:36 20° ESE
SL-24 R/B - RUBIN 2 3.9 20:29:45 10° NW 20:35:11 82° NE 20:38:18 22° SE
Cosmos 1536 3.0 20:33:59 10° N 20:37:58 55° E 20:40:06 25° SSE
ERBS 2.7 20:35:31 10° NW 20:38:46 53° NE 20:40:21 26° ESE
USA 267 4.4 20:33:22 10° S 20:39:01 32° SW 20:44:48 10° WNW
OAO 3 Rocket 4.2 20:35:39 10° WSW 20:39:30 26° S 20:40:54 22° SSE
SPOT 5 3.7 20:39:51 21° SE 20:42:56 42° ENE 20:47:56 10° N
CZ-2C R/B 2.7 20:40:47 10° SW 20:43:05 18° S 20:43:05 18° S
Nadezhda 1 Rocket 4.0 20:38:47 10° S 20:45:01 73° E 20:51:12 10° NNE
Cosmos 2154 Rocket 4.0 20:39:51 10° N 20:46:11 75° E 20:50:44 20° SSE
Cosmos 2074 Rocket 4.2 20:42:22 10° NNW 20:48:40 72° W 20:54:25 12° S
ERS-1 Rocket 3.4 20:49:06 25° SE 20:51:48 49° ENE 20:56:38 10° N
Cosmos 2184 Rocket 4.2 20:46:03 10° NNW 20:52:12 70° W 20:57:40 13° S
ISS -1.9 20:53:24 10° W 20:56:29 33° NNW 20:59:36 10° NE
Cosmos 2112 Rocket 4.1 20:53:57 10° NNW 20:59:20 82° WSW 21:02:28 26° SSE
Cosmos 1869 Rocket 3.7 20:57:12 10° NNW 21:01:31 70° W 21:04:04 24° S
Spot 2 Rocket 3.4 21:00:39 25° SSE 21:03:38 87° WSW 21:08:43 10° NNW
Cosmos 1937 Rocket 3.4 20:58:57 10° SSW 21:04:03 83° ESE 21:09:16 10° NNE
JB-3 4.1 21:02:21 10° NNE 21:06:12 83° ESE 21:08:00 30° S
Cosmos 2228 Rocket 3.9 21:02:24 10° SSW 21:06:44 51° WNW 21:11:08 10° N
Lacrosse 5 3.9 21:09:47 13° E 21:09:47 13° E 21:10:32 10° E
Cosmos 44 3.9 21:02:10 10° NW 21:07:26 54° WSW 21:10:07 26° S
SPOT 1/Viking Rocket 4.0 21:05:53 20° S 21:09:27 58° W 21:14:34 10° NNW
Cosmos 1743 2.7 21:06:03 10° N 21:09:56 70° E 21:11:02 44° SSE
Resurs 01 Rocket 3.5 21:08:37 10° SSW 21:12:17 25° W 21:15:58 10° NW
RESURS DK-1 3.8 21:08:58 10° N 21:12:33 27° NE 21:13:58 22° E
Cosmos 2084 Rocket 3.9 21:10:39 10° NW 21:14:52 53° WSW 21:16:25 35° S
Cosmos 1707 Rocket 3.5 21:14:44 30° S 21:16:52 87° E 21:21:19 10° N
Meteor 1-27 Rocket 4.3 21:11:31 10° SSW 21:17:19 59° WNW 21:23:12 10° N
CARTOSAT-1 3.7 21:15:33 32° S 21:17:27 70° WSW 21:21:46 10° NNW
Cosmos 2366 rocket 4.4 21:16:57 10° N 21:22:56 47° ENE 21:25:29 31° SE
Cosmos 1680 Rocket 4.4 21:19:00 10° NNW 21:24:00 43° WSW 21:26:59 22° SSW
Cosmos 1867 3.5 21:23:54 23° SSW 21:27:16 63° ESE 21:32:41 10° NE
Cosmos 2181 Rocket 4.1 21:25:49 33° SSE 21:28:27 58° E 21:34:27 10° NNE
Tianhe-1 2.4 21:26:16 10° W 21:28:08 29° WSW 21:28:08 29° WSW
Meteor 2-4 Rocket 4.4 21:28:24 32° ESE 21:29:40 36° E 21:34:42 10° NNE
Meteor 1-19 Rocket 4.1 21:28:38 37° SSE 21:30:39 63° E 21:36:01 10° NNE
BREEZE-M R/B 3.1 21:34:01 10° NW 21:36:22 38° NNE 21:36:27 38° NNE
SL-27 R/B 4.2 21:35:28 10° N 21:38:02 21° ENE 21:38:02 21° ENE
BREEZE M DEB (TANK) 3.1 21:35:42 10° WNW 21:37:17 26° W 21:37:17 26° W
Cosmos 372 Rocket 3.9 21:36:41 28° SSW 21:39:27 86° WNW 21:44:35 10° NNE
Terra 1.7 21:38:38 46° S 21:40:05 85° WSW 21:44:53 10° NNW
Cosmos 1515 3.9 21:39:36 45° SW 21:40:31 63° W 21:44:18 10° N
Cosmos 1943 Rocket 2.9 21:37:44 10° SW 21:43:11 51° WNW 21:48:39 10° NNE
Cosmos 1733 Rocket 3.0 21:39:55 10° NNW 21:44:15 75° W 21:45:11 53° SSW
Cosmos 2082 Rocket 4.4 21:42:33 10° WNW 21:45:52 16° W 21:49:10 10° SW
Gbstr 26 Del rocket 4.3 21:38:50 10° WNW 21:46:12 59° SW 21:48:29 39° SSE
Cosmos 1340 Rocket 4.3 21:43:11 10° NNW 21:46:49 31° W 21:48:11 25° SW
Cosmos 1656 Rocket 3.6 21:46:52 45° SSE 21:48:22 62° ESE 21:53:50 10° NNE
Okean 1 3.6 21:49:15 45° SW 21:50:12 60° W 21:54:09 10° N
ATLAS 2AS CENTAUR R/B 3.8 21:45:52 10° NW 21:52:06 33° WSW 21:55:13 23° SSW
Cosmos 2341 Rocket 4.2 21:45:50 10° NNW 21:52:12 69° W 21:55:10 33° SSW
Cosmos 2218 Rocket 4.0 21:49:16 10° N 21:55:39 85° E 21:58:01 42° SSE
ARIANE 5 R/B 4.3 21:56:25 19° SW 21:58:06 25° W 22:01:41 10° NW
Cosmos 494 Rocket 4.5 21:54:38 10° N 21:59:39 48° ENE 22:00:49 40° ESE
Cosmos 2298 Rocket 3.9 22:02:56 55° SSE 22:04:00 71° ESE 22:09:18 10° NNE
SL-8 Rocket 4.1 21:57:59 10° NNW 22:04:17 71° W 22:06:45 38° SSW
H-2A R/B 4.1 22:00:47 10° N 22:04:51 52° WNW 22:06:00 39° WSW
Cosmos 1908 Rocket 3.5 22:01:49 10° N 22:06:17 69° E 22:06:34 67° ESE
Nadezhda 3 Rocket 4.5 22:06:38 38° ESE 22:07:53 43° E 22:13:40 10° NNE
Cosmos 2369 Rocket 2.7 22:08:17 18° SW 22:12:24 56° WNW 22:18:00 10° NNE
ATLAS CENTAUR R/B 1.6 22:12:29 52° WNW 22:12:50 55° NW 22:16:34 10° NNE
Okean 1-7 3.0 22:21:21 73° ENE 22:21:21 73° ENE 22:25:27 10° NNE
Cosmos 1238 Rocket 4.4 22:16:49 10° NNW 22:21:51 38° W 22:23:11 31° WSW
Spot 4 4.0 22:24:53 55° E 22:25:24 59° ENE 22:30:11 10° N
Cosmos 2344 4.5 22:18:33 10° NW 22:27:51 73° NE 22:35:51 26° SE
Cosmos 2242 Rocket 3.5 22:27:54 82° WSW 22:28:01 83° W 22:32:34 10° N
Cosmos 2150 Rocket 4.1 22:28:56 50° SW 22:30:19 75° WNW 22:35:36 10° NNE
Cosmos 1125 Rocket 3.4 22:31:07 65° SSW 22:31:56 89° WNW 22:37:11 10° NNE
Cosmos 468 4.5 22:27:29 10° NNW 22:32:43 67° WSW 22:33:19 61° SSW
Cosmos 1975 3.9 22:29:53 10° NNW 22:33:30 36° W 22:33:30 36° W
ISS -1.2 22:31:15 10° NW 22:33:58 22° N 22:36:27 11° NE
Cosmos 1703 Rocket 3.5 22:34:26 75° W 22:34:29 75° W 22:38:56 10° N
Cosmos 1378 4.1 22:38:54 43° NNE 22:38:54 43° NNE 22:41:35 10° NNE
Cosmos 1782 Rocket 3.5 22:34:39 10° N 22:38:55 80° NNE 22:38:55 80° NNE
Cosmos 724 4.4 22:46:12 43° SW 22:48:22 83° NW 22:54:40 10° NNE
Lacrosse 5 1.8 22:48:53 67° WSW 22:49:33 85° NW 22:54:41 10° NE
RESURS DK-1 3.8 22:46:54 10° NW 22:49:50 28° W 22:49:50 28° W
Cosmos 1934 Rocket 4.1 22:48:10 10° N 22:54:12 58° E 22:55:20 50° ESE
Cosmos 1066 Rocket 4.1 22:55:52 68° SSE 22:56:30 77° E 23:02:06 10° NNE
Cosmos 1805 4.2 22:52:42 10° N 22:55:42 43° NE 22:55:42 43° NE
Cosmos 1356 Rocket 3.8 22:58:02 10° NNW 23:01:50 62° NW 23:01:50 62° NW
Cosmos 2227 Rocket 4.1 22:59:35 10° N 23:04:00 23° NE 23:07:26 14° E
Cosmos 2297 Rocket 3.7 23:01:06 10° N 23:06:01 29° NE 23:08:40 20° E
Okean 3 3.8 23:06:38 60° NW 23:06:38 60° NW 23:10:23 10° N
Cosmos 1821 Rocket 4.2 23:00:12 10° NNW 23:06:32 65° W 23:07:52 52° SW
Meteor 1-12 Rocket 4.3 23:05:46 10° NNW 23:11:31 63° W 23:12:13 58° SW
NOSS 2-1 (E) 4.3 23:11:16 10° NW 23:16:30 78° SW 23:17:30 63° S
Cosmos 44 Rocket 4.0 23:12:30 10° NW 23:16:57 44° W 23:16:57 44° W
Cosmos 1766 4.1 23:14:12 10° N 23:17:13 47° NNE 23:17:13 47° NNE
Meteor 1-15 Rocket 4.1 23:13:19 10° N 23:19:07 87° WSW 23:19:48 71° S
Okean 1 Rocket 4.5 23:15:44 10° NNE 23:19:30 28° ENE 23:19:30 28° ENE
Cosmos 2221 Rocket 3.7 23:23:40 73° NNE 23:23:40 73° NNE 23:27:49 10° N
COSMOS 2455 3.1 23:21:02 10° NNW 23:27:02 63° NE 23:28:40 46° ESE
ALOS 2 3.1 23:29:20 51° WNW 23:29:20 51° WNW 23:33:05 10° NNW
COBE Rocket 4.0 23:31:00 68° WSW 23:31:05 69° W 23:36:16 10° NNW
Nimbus 7 Rocket 4.3 23:25:42 10° NNE 23:31:39 89° ESE 23:32:34 66° SSW
Cosmos 1535 Rocket 4.4 23:28:38 10° N 23:34:56 78° W 23:36:02 62° SSW
Cosmos 1300 Rocket 4.1 23:30:39 10° NNW 23:34:19 51° WNW 23:34:19 51° WNW
Cosmos 1269 Rocket 4.1 23:29:56 10° NNW 23:35:07 64° WSW 23:35:07 64° WSW
USA 81 4.0 23:30:53 10° N 23:36:11 71° E 23:36:30 69° ESE
Cosmos 1932 4.5 23:35:56 60° SE 23:36:31 62° ESE 23:42:46 10° NE
Cosmos 1470 4.1 23:33:31 10° N 23:36:35 33° ENE 23:36:35 33° ENE
Cosmos 1727 Rocket 4.4 23:36:38 44° ESE 23:37:47 50° E 23:43:52 10° NNE
Cosmos 2251 Rocket 4.4 23:36:41 10° N 23:41:40 42° ENE 23:42:54 36° E
Cosmos 1842 4.1 23:46:42 47° NNE 23:46:42 47° NNE 23:49:34 10° N
Thor Agena Rocket 3.5 23:47:02 10° NNE 23:52:20 78° WNW 23:52:46 72° WSW
